FLOCK 1C-2

Last updated on Wed Feb 14 2018 16:18:40 GMT+0000 (Coordinated Universal Time)

1 40029U 14033V 18045.18129315 .00000461 00000-0 54677-4 0 9998 2 40029 97.9196 322.5800 0012866 222.9952 137.0301 14.89228131198510

Satellite not in orbit

FLOCK 1C-2